Tracking 26894 objects as of 2-Feb-2023
HD Live streaming from Space Station
objects crossing your sky now

INTELSAT 505

Track INTELSAT 505 now!
INTELSAT 505 is classified as:


NORAD ID: 13595
Int'l Code: 1982-097A
Perigee: 36,241.3 km
Apogee: 36,410.0 km
Inclination: 13.6 °
Period: 1,463.4 minutes
Semi major axis: 42696 km
RCS: 0.1428 m2 (medium)
Launch date: September 28, 1982
Source: International Telecommunications Satellite Organization (ITSO)
Launch site: AIR FORCE EASTERN TEST RANGE (AFETR)
Your satellite tracking list
Your tracking list is empty




NASA's NSSDC Master Catalog

Two Line Element Set (TLE):
1 13595U 82097A   23031.86788208 -.00000001  00000-0  00000-0 0  9997
2 13595  13.6446 339.8331 0019759  17.1853 167.0590  0.98403912115905
Source of the keplerian elements: AFSPC